When you browse on this site, cookies collect data to enhance your experience and personalize the content and advertising you see.
Visit our Privacy Policy to learn more. By continuing to use the site, you agree to this use of cookies and data.
  • In United Kingdom
  • List of Countries
  • For 7 days
  • Water Temperature
  • Weather Map
  • Weather Widgets
  • user-avatar
    Login

    Hourly Weather Dortmund

    Today, 6 December, Friday

    Time Temperature Precipitation Wind Pressure Humidity
    00:00 -1°C° 0 mm 6 mps 754 mmHg 68%
    01:00 -1°C° 0.1 mm 6 mps 753 mmHg 69%
    02:00 -1°C° 0.1 mm 6 mps 752 mmHg 70%
    03:00 +1°C° 0.1 mm 6 mps 752 mmHg 71%
    04:00 +1°C° 0.3 mm 6 mps 752 mmHg 73%
    05:00 +1°C° 0.3 mm 6 mps 752 mmHg 75%
    06:00 +2°C° 0.3 mm 6 mps 752 mmHg 78%
    07:00 +2°C° 0.6 mm 6 mps 751 mmHg 80%
    08:00 +2°C° 0.6 mm 6 mps 751 mmHg 82%
    09:00 +2°C° 0.6 mm 6 mps 750 mmHg 85%
    10:00 +3°C° 1.2 mm 6 mps 750 mmHg 87%
    11:00 +3°C° 1.2 mm 6 mps 750 mmHg 89%
    12:00 +3°C° 1.2 mm 6 mps 749 mmHg 90%
    13:00 +4°C° 1.1 mm 6 mps 749 mmHg 90%
    14:00 +4°C° 1.1 mm 6 mps 748 mmHg 90%
    15:00 +4°C° 1.1 mm 6 mps 747 mmHg 90%
    16:00 +4°C° 1.3 mm 6 mps 747 mmHg 90%
    17:00 +4°C° 1.3 mm 6 mps 746 mmHg 91%
    18:00 +5°C° 1.3 mm 6 mps 746 mmHg 91%
    19:00 +5°C° 1.8 mm 6 mps 745 mmHg 90%
    20:00 +5°C° 1.8 mm 7 mps 745 mmHg 90%
    21:00 +5°C° 1.8 mm 7 mps 744 mmHg 89%
    22:00 +6°C° 0.5 mm 7 mps 744 mmHg 88%
    23:00 +6°C° 0.5 mm 7 mps 744 mmHg 86%

    Tomorrow, 7 December, Saturday

    Time Temperature Precipitation Wind Pressure Humidity
    00:00 +6°C° 0.5 mm 7 mps 744 mmHg 84%
    01:00 +6°C° 0.6 mm 7 mps 745 mmHg 85%
    02:00 +6°C° 0.6 mm 7 mps 745 mmHg 86%
    03:00 +6°C° 0.6 mm 7 mps 745 mmHg 87%
    04:00 +6°C° 0.1 mm 7 mps 746 mmHg 87%
    05:00 +7°C° 0.1 mm 6 mps 747 mmHg 87%
    06:00 +7°C° 0.1 mm 6 mps 748 mmHg 87%
    07:00 +7°C° 0 mm 6 mps 748 mmHg 87%
    08:00 +7°C° 0 mm 6 mps 749 mmHg 87%
    09:00 +7°C° 0 mm 6 mps 749 mmHg 87%
    10:00 +7°C° 0 mm 6 mps 750 mmHg 86%
    11:00 +7°C° 0 mm 6 mps 750 mmHg 85%
    12:00 +7°C° 0 mm 5 mps 750 mmHg 85%
    13:00 +7°C° 0 mm 5 mps 750 mmHg 85%
    14:00 +7°C° 0 mm 5 mps 750 mmHg 86%
    15:00 +7°C° 0 mm 5 mps 750 mmHg 86%
    16:00 +7°C° 0 mm 5 mps 750 mmHg 86%
    17:00 +7°C° 0 mm 5 mps 751 mmHg 86%
    18:00 +6°C° 0 mm 5 mps 751 mmHg 85%
    19:00 +6°C° 0 mm 5 mps 751 mmHg 86%
    20:00 +6°C° 0 mm 5 mps 751 mmHg 86%
    21:00 +6°C° 0 mm 5 mps 751 mmHg 87%
    22:00 +6°C° 0 mm 5 mps 751 mmHg 88%
    23:00 +6°C° 0 mm 5 mps 751 mmHg 89%

    Day after tomorrow, 8 December, Sunday

    Time Temperature Precipitation Wind Pressure Humidity
    00:00 +5°C° 0 mm 5 mps 750 mmHg 90%
    01:00 +6°C° 0 mm 5 mps 749 mmHg 86%
    02:00 +5°C° 0 mm 6 mps 749 mmHg 83%
    03:00 +5°C° 0 mm 6 mps 748 mmHg 80%
    04:00 +5°C° 0 mm 6 mps 747 mmHg 79%
    05:00 +5°C° 0 mm 7 mps 746 mmHg 79%
    06:00 +5°C° 0 mm 7 mps 745 mmHg 78%
    07:00 +6°C° 0.7 mm 7 mps 744 mmHg 80%
    08:00 +6°C° 0.7 mm 8 mps 744 mmHg 82%
    09:00 +6°C° 0.7 mm 8 mps 743 mmHg 84%
    10:00 +7°C° 0.1 mm 8 mps 743 mmHg 84%
    11:00 +9°C° 0.1 mm 8 mps 742 mmHg 84%
    12:00 +10°C° 0.1 mm 8 mps 742 mmHg 84%
    13:00 +9°C° 0.1 mm 7 mps 742 mmHg 80%
    14:00 +8°C° 0.1 mm 7 mps 742 mmHg 77%
    15:00 +8°C° 0.1 mm 6 mps 742 mmHg 73%
    16:00 +7°C° 0 mm 6 mps 742 mmHg 75%
    17:00 +7°C° 0 mm 6 mps 742 mmHg 76%
    18:00 +5°C° 0 mm 6 mps 742 mmHg 78%
    19:00 +5°C° 0.7 mm 6 mps 741 mmHg 78%
    20:00 +5°C° 0.7 mm 7 mps 741 mmHg 78%
    21:00 +6°C° 0.7 mm 7 mps 741 mmHg 78%
    22:00 +5°C° 0.3 mm 7 mps 740 mmHg 77%
    23:00 +5°C° 0.3 mm 7 mps 740 mmHg 77%

    9 December, Monday

    Time Temperature Precipitation Wind Pressure Humidity
    00:00 +5°C° 0.3 mm 7 mps 740 mmHg 77%
    01:00 +5°C° 0 mm 7 mps 739 mmHg 77%
    02:00 +5°C° 0 mm 7 mps 738 mmHg 77%
    03:00 +5°C° 0 mm 7 mps 737 mmHg 77%
    04:00 +5°C° 0.5 mm 7 mps 736 mmHg 79%
    05:00 +4°C° 0.5 mm 8 mps 735 mmHg 80%
    06:00 +4°C° 0.5 mm 8 mps 735 mmHg 82%
    07:00 +4°C° 0.5 mm 8 mps 734 mmHg 81%
    08:00 +4°C° 0.5 mm 8 mps 734 mmHg 81%
    09:00 +5°C° 0.5 mm 7 mps 734 mmHg 80%
    10:00 +5°C° 0.1 mm 8 mps 735 mmHg 77%
    11:00 +5°C° 0.1 mm 8 mps 735 mmHg 73%
    12:00 +5°C° 0.1 mm 8 mps 735 mmHg 69%
    13:00 +5°C° 0.1 mm 7 mps 736 mmHg 72%
    14:00 +5°C° 0.1 mm 6 mps 736 mmHg 76%
    15:00 +5°C° 0.1 mm 5 mps 737 mmHg 79%
    16:00 +5°C° 0.1 mm 5 mps 738 mmHg 80%
    17:00 +5°C° 0.1 mm 5 mps 739 mmHg 81%
    18:00 +5°C° 0.1 mm 4 mps 739 mmHg 82%
    19:00 +5°C° 0.4 mm 5 mps 740 mmHg 81%
    20:00 +4°C° 0.4 mm 6 mps 741 mmHg 80%
    21:00 +3°C° 0.4 mm 7 mps 742 mmHg 79%
    22:00 +2°C° 0.8 mm 8 mps 743 mmHg 75%
    23:00 +3°C° 0.8 mm 9 mps 745 mmHg 71%

    10 December, Tuesday

    Time Temperature Precipitation Wind Pressure Humidity
    00:00 +3°C° 0.8 mm 9 mps 746 mmHg 67%
    01:00 +2°C° 0 mm 8 mps 747 mmHg 68%
    02:00 +2°C° 0 mm 7 mps 748 mmHg 68%
    03:00 +2°C° 0 mm 6 mps 750 mmHg 69%
    04:00 +2°C° 0 mm 6 mps 751 mmHg 70%
    05:00 +2°C° 0 mm 5 mps 752 mmHg 72%
    06:00 +2°C° 0 mm 5 mps 754 mmHg 74%
    07:00 +3°C° 0 mm 4 mps 755 mmHg 74%
    08:00 +3°C° 0 mm 3 mps 755 mmHg 74%
    09:00 +3°C° 0 mm 3 mps 756 mmHg 74%
    10:00 +4°C° 0 mm 3 mps 756 mmHg 70%
    11:00 +4°C° 0 mm 3 mps 756 mmHg 67%
    12:00 +4°C° 0 mm 3 mps 756 mmHg 63%
    13:00 +4°C° 0 mm 3 mps 756 mmHg 66%
    14:00 +4°C° 0 mm 3 mps 756 mmHg 69%
    15:00 +3°C° 0 mm 3 mps 756 mmHg 72%
    16:00 +3°C° 0 mm 3 mps 755 mmHg 73%
    17:00 +3°C° 0 mm 4 mps 754 mmHg 73%
    18:00 +2°C° 0 mm 5 mps 754 mmHg 74%
    19:00 +2°C° 0.1 mm 5 mps 753 mmHg 74%
    20:00 +1°C° 0.1 mm 6 mps 752 mmHg 75%
    21:00 0°C° 0.1 mm 7 mps 751 mmHg 75%
    22:00 +2°C° 0.6 mm 7 mps 750 mmHg 77%
    23:00 +1°C° 0.6 mm 8 mps 749 mmHg 79%

    11 December, Wednesday

    Time Temperature Precipitation Wind Pressure Humidity
    00:00 +2°C° 0.6 mm 8 mps 747 mmHg 81%
    01:00 +2°C° 1.4 mm 8 mps 747 mmHg 84%
    02:00 +4°C° 1.4 mm 7 mps 747 mmHg 87%
    03:00 +5°C° 1.4 mm 6 mps 747 mmHg 90%
    04:00 +4°C° 0.3 mm 6 mps 747 mmHg 89%
    05:00 +5°C° 0.3 mm 5 mps 747 mmHg 88%
    06:00 +5°C° 0.3 mm 5 mps 747 mmHg 87%
    07:00 +3°C° 0 mm 5 mps 747 mmHg 85%
    08:00 +3°C° 0 mm 5 mps 747 mmHg 84%
    09:00 +3°C° 0 mm 5 mps 747 mmHg 82%
    10:00 +5°C° 0 mm 5 mps 747 mmHg 78%
    11:00 +4°C° 0 mm 6 mps 747 mmHg 74%
    12:00 +5°C° 0 mm 6 mps 747 mmHg 70%
    13:00 +5°C° 0 mm 6 mps 746 mmHg 71%
    14:00 +4°C° 0 mm 6 mps 746 mmHg 71%
    15:00 +4°C° 0 mm 6 mps 745 mmHg 72%
    16:00 +4°C° 0.3 mm 7 mps 745 mmHg 76%
    17:00 +4°C° 0.3 mm 7 mps 744 mmHg 80%
    18:00 +2°C° 0.3 mm 8 mps 743 mmHg 83%
    19:00 +2°C° 0.8 mm 8 mps 743 mmHg 84%
    20:00 +2°C° 0.8 mm 8 mps 742 mmHg 85%
    21:00 +2°C° 0.8 mm 8 mps 742 mmHg 86%
    22:00 +2°C° 1.3 mm 8 mps 741 mmHg 85%
    23:00 +2°C° 1.3 mm 8 mps 741 mmHg 85%
    Show more